Mount Pleasant, MI

11:53 AM EDT on July 24, 2017 (GMT -0400)
Mount Pleasant Municipal

Weather History for KMOP - March, 2012

Change the Weather History Date:

Saturday, March 3, 2012

  Actual Average (KAMN) Record (KAMN)
Temperature  
Mean Temperature 31 °F -  
Max Temperature 32 °F 38 °F 70 °F (1974)
Min Temperature 30 °F 19 °F -17 °F (2014)
Degree Days  
Heating Degree Days 34    
Moisture  
Dew Point 30 °F    
Average Humidity 93    
Maximum Humidity 100    
Minimum Humidity 86    
Precipitation  
Precipitation 0.09 in - - ()
Sea Level Pressure  
Sea Level Pressure 29.40 in    
Wind  
Wind Speed 17 mph (WSW)    
Max Wind Speed 22 mph    
Max Gust Speed 31 mph    
Visibility 6 miles    
Events Snow    
Averages and records for this station are not official NWS values.
T = Trace of Precipitation, MM = Missing Value Source: NWS Daily Summary

Daily Weather History Graph

Daily Weather History Graph

Search for Another Location

Airport or City:

Trip Planner

Search our weather history database for the weather conditions in past years. The results will help you decide how hot, cold, wet, or windy it might be!

Date:

Astronomy

Mar. 03, 2012 Rise Set
Actual Time 7:11 AM EST 6:30 PM EST
Civil Twilight 6:42 AM EST 6:59 PM EST
Nautical Twilight 6:09 AM EST 7:32 PM EST
Astronomical Twilight 5:36 AM EST 8:06 PM EST
Moon 1:32 PM EST (3/3) 3:55 AM EST (3/3)
Length of Visible Light 12h 17m
Length of Day
11h 19m
Waxing Gibbous, 75% of the Moon is Illuminated
Mar 3
Waxing Gibbous
Mar 8
Full
Mar 14
Last Quarter
Mar 22
New
Mar 30
First Quarter

Hourly Weather History & Observations

Time (EST) Temp. Windchill Dew Point Humidity Pressure Visibility Wind Dir Wind Speed Gust Speed Precip Events Conditions
12:15 AM 32.0 °F 22.1 °F 32.0 °F 100% 29.08 in 1.2 mi West 13.8 mph 20.7 mph 0.01 in Snow Light Snow
12:35 AM 32.0 °F 20.5 °F 32.0 °F 100% 29.10 in 2.0 mi WSW 18.4 mph 23.0 mph 0.02 in Snow Light Snow
12:54 AM 32.0 °F 20.8 °F 32.0 °F 100% 29.11 in 2.5 mi West 17.3 mph 26.5 mph 0.03 in Snow Light Snow
1:15 AM 32.0 °F 21.2 °F 32.0 °F 100% 29.13 in 2.5 mi West 16.1 mph 23.0 mph 0.01 in Snow Light Snow
1:35 AM 32.0 °F 20.1 °F 32.0 °F 100% 29.15 in 1.8 mi West 19.6 mph 29.9 mph 0.02 in Snow Light Snow
1:54 AM 32.0 °F 20.8 °F 32.0 °F 100% 29.17 in 2.5 mi West 17.3 mph 29.9 mph 0.03 in Snow Light Snow
2:15 AM 32.0 °F 20.1 °F 32.0 °F 100% 29.19 in 2.0 mi West 19.6 mph 31.1 mph N/A Snow Light Snow
2:35 AM 32.0 °F 20.1 °F 32.0 °F 100% 29.21 in 2.5 mi West 19.6 mph 28.8 mph 0.01 in Snow Light Snow
2:55 AM 32.0 °F 21.2 °F 32.0 °F 100% 29.23 in 1.8 mi West 16.1 mph 31.1 mph 0.01 in Snow Light Snow
3:15 AM 32.0 °F 20.8 °F 32.0 °F 100% 29.24 in 4.0 mi West 17.3 mph 28.8 mph 0.01 in Snow Light Snow
3:35 AM 32.0 °F 19.5 °F 32.0 °F 100% 29.24 in 4.0 mi West 21.9 mph 27.6 mph 0.01 in Snow Light Snow
3:55 AM 32.0 °F 20.5 °F 32.0 °F 100% 29.25 in 4.0 mi West 18.4 mph 27.6 mph 0.01 in Snow Light Snow
4:15 AM 32.0 °F 21.6 °F 32.0 °F 100% 29.26 in 10.0 mi West 15.0 mph 29.9 mph 0.01 in Snow Light Snow
4:34 AM 32.0 °F 20.5 °F 32.0 °F 100% 29.27 in 5.0 mi West 18.4 mph 24.2 mph 0.01 in Snow Light Snow
4:55 AM 32.0 °F 20.5 °F 30.2 °F 93% 29.27 in 10.0 mi West 18.4 mph 28.8 mph 0.01 in   Overcast
5:15 AM 32.0 °F 20.5 °F 30.2 °F 93% 29.29 in 10.0 mi West 18.4 mph 26.5 mph N/A   Mostly Cloudy
5:35 AM 32.0 °F 21.2 °F 32.0 °F 100% 29.30 in 10.0 mi WSW 16.1 mph 26.5 mph N/A   Mostly Cloudy
5:55 AM 32.0 °F 20.8 °F 32.0 °F 100% 29.31 in 2.5 mi WSW 17.3 mph 23.0 mph N/A Snow Light Snow
6:14 AM 32.0 °F 19.8 °F 30.2 °F 93% 29.32 in 5.0 mi WSW 20.7 mph 31.1 mph N/A Snow Light Snow
6:35 AM 32.0 °F 21.2 °F 30.2 °F 93% 29.33 in 10.0 mi WSW 16.1 mph 27.6 mph N/A   Overcast
6:55 AM 32.0 °F 20.8 °F 30.2 °F 93% 29.34 in 7.0 mi WSW 17.3 mph 26.5 mph N/A   Overcast
7:15 AM 32.0 °F 20.5 °F 30.2 °F 93% 29.35 in 7.0 mi WSW 18.4 mph 27.6 mph N/A Snow Light Snow
7:55 AM 32.0 °F 19.5 °F 30.2 °F 93% 29.37 in 7.0 mi WSW 21.9 mph 27.6 mph N/A   Overcast
8:15 AM 32.0 °F 19.8 °F 30.2 °F 93% 29.38 in 10.0 mi WSW 20.7 mph 25.3 mph N/A   Overcast
8:35 AM 32.0 °F 20.5 °F 28.4 °F 87% 29.39 in 10.0 mi WSW 18.4 mph 25.3 mph N/A   Overcast
8:55 AM 32.0 °F 21.2 °F 30.2 °F 93% 29.40 in 10.0 mi WSW 16.1 mph 21.9 mph N/A   Overcast
9:14 AM 32.0 °F 20.5 °F 28.4 °F 87% 29.41 in 10.0 mi WSW 18.4 mph 29.9 mph N/A   Overcast
9:35 AM 32.0 °F 22.5 °F 28.4 °F 87% 29.42 in 10.0 mi WSW 12.7 mph 21.9 mph N/A   Overcast
9:55 AM 32.0 °F 21.2 °F 28.4 °F 87% 29.43 in 10.0 mi WSW 16.1 mph 23.0 mph N/A   Overcast
10:14 AM 32.0 °F 22.1 °F 28.4 °F 87% 29.44 in 10.0 mi WSW 13.8 mph 26.5 mph N/A   Overcast
10:35 AM 32.0 °F 20.5 °F 28.4 °F 87% 29.44 in 5.0 mi WSW 18.4 mph 28.8 mph N/A Snow Light Snow
10:55 AM 32.0 °F 19.8 °F 28.4 °F 87% 29.45 in 5.0 mi WSW 20.7 mph 27.6 mph N/A   Overcast
11:14 AM 32.0 °F 20.5 °F 28.4 °F 87% 29.46 in 7.0 mi WSW 18.4 mph 28.8 mph N/A Snow Light Snow
11:35 AM 32.0 °F 22.1 °F 30.2 °F 93% 29.47 in 7.0 mi WSW 13.8 mph 24.2 mph N/A Snow Light Snow
11:55 AM 32.0 °F 20.8 °F 30.2 °F 93% 29.47 in 10.0 mi WSW 17.3 mph 26.5 mph N/A   Overcast
12:14 PM 32.0 °F 20.1 °F 30.2 °F 93% 29.48 in 4.0 mi WSW 19.6 mph 23.0 mph N/A Snow Light Snow
12:35 PM 32.0 °F 22.1 °F 30.2 °F 93% 29.49 in 4.0 mi WSW 13.8 mph 25.3 mph N/A Snow Light Snow
12:55 PM 32.0 °F 21.6 °F 30.2 °F 93% 29.49 in 7.0 mi WSW 15.0 mph 25.3 mph N/A Snow Light Snow
1:14 PM 32.0 °F 20.1 °F 28.4 °F 87% 29.49 in 4.0 mi WSW 19.6 mph 25.3 mph N/A Snow Light Snow
1:35 PM 32.0 °F 21.2 °F 30.2 °F 93% 29.49 in 5.0 mi WSW 16.1 mph 21.9 mph N/A Snow Light Snow
1:55 PM 32.0 °F 19.5 °F 30.2 °F 93% 29.50 in 10.0 mi WSW 21.9 mph 29.9 mph N/A Snow Light Snow
2:15 PM 32.0 °F 20.8 °F 28.4 °F 87% 29.51 in 10.0 mi WSW 17.3 mph 28.8 mph N/A Snow Light Snow
2:35 PM 32.0 °F 21.2 °F 30.2 °F 93% 29.51 in 10.0 mi WSW 16.1 mph 21.9 mph N/A Snow Light Snow
2:55 PM 32.0 °F 20.5 °F 30.2 °F 93% 29.51 in 10.0 mi WSW 18.4 mph 26.5 mph N/A Snow Light Snow
3:15 PM 32.0 °F 19.5 °F 30.2 °F 93% 29.52 in 3.0 mi WSW 21.9 mph 28.8 mph N/A Snow Light Snow
3:35 PM 32.0 °F 20.1 °F 30.2 °F 93% 29.52 in 5.0 mi WSW 19.6 mph 28.8 mph N/A Snow Light Snow
3:55 PM 32.0 °F 22.1 °F 30.2 °F 93% 29.53 in 5.0 mi WSW 13.8 mph 27.6 mph N/A Snow Light Snow
4:15 PM 32.0 °F 20.8 °F 30.2 °F 93% 29.53 in 5.0 mi WSW 17.3 mph 27.6 mph N/A Snow Light Snow
4:35 PM 32.0 °F 22.5 °F 30.2 °F 93% 29.54 in 5.0 mi WSW 12.7 mph 25.3 mph N/A Snow Light Snow
4:54 PM 32.0 °F 22.1 °F 30.2 °F 93% 29.55 in 4.0 mi WSW 13.8 mph 24.2 mph N/A Snow Light Snow
5:15 PM 32.0 °F 20.1 °F 28.4 °F 87% 29.56 in 5.0 mi WSW 19.6 mph 27.6 mph N/A Snow Light Snow
5:35 PM 32.0 °F 22.1 °F 30.2 °F 93% 29.57 in 2.5 mi West 13.8 mph 20.7 mph N/A Snow Light Snow
5:55 PM 32.0 °F 23.6 °F 30.2 °F 93% 29.59 in 1.8 mi WSW 10.4 mph 20.7 mph N/A Snow Light Snow
6:15 PM 32.0 °F 23.6 °F 28.4 °F 87% 29.60 in 5.0 mi West 10.4 mph 16.1 mph N/A Snow Light Snow
6:35 PM 30.2 °F 20.2 °F 26.6 °F 86% 29.61 in 10.0 mi West 12.7 mph 16.1 mph N/A   Overcast
6:54 PM 30.2 °F 22.6 °F 26.6 °F 86% 29.62 in 10.0 mi West 8.1 mph - N/A   Overcast
7:15 PM 30.2 °F 21.3 °F 26.6 °F 86% 29.64 in 10.0 mi WNW 10.4 mph 16.1 mph N/A   Overcast
7:35 PM 28.4 °F 19.7 °F 24.8 °F 86% 29.64 in 10.0 mi WNW 9.2 mph - N/A   Mostly Cloudy
7:55 PM 28.4 °F 19.7 °F 24.8 °F 86% 29.65 in 10.0 mi West 9.2 mph - N/A   Overcast
8:15 PM 28.4 °F 19.7 °F 23.0 °F 80% 29.66 in 10.0 mi West 9.2 mph - N/A   Mostly Cloudy
8:35 PM 28.4 °F 19.7 °F 23.0 °F 80% 29.67 in 10.0 mi WNW 9.2 mph - N/A   Mostly Cloudy
8:54 PM 28.4 °F 22.2 °F 23.0 °F 80% 29.68 in 10.0 mi WNW 5.8 mph - N/A   Mostly Cloudy
9:15 PM 28.4 °F 23.3 °F 23.0 °F 80% 29.68 in 10.0 mi WNW 4.6 mph - N/A   Mostly Cloudy
9:35 PM 26.6 °F 20.0 °F 23.0 °F 86% 29.69 in 10.0 mi WNW 5.8 mph - N/A   Mostly Cloudy
9:54 PM 26.6 °F 21.2 °F 23.0 °F 86% 29.70 in 10.0 mi WNW 4.6 mph - N/A   Mostly Cloudy
10:15 PM 26.6 °F 21.2 °F 21.2 °F 80% 29.70 in 10.0 mi West 4.6 mph - N/A   Overcast
10:35 PM 26.6 °F 20.0 °F 21.2 °F 80% 29.70 in 10.0 mi West 5.8 mph - N/A   Overcast
10:54 PM 26.6 °F 21.2 °F 21.2 °F 80% 29.71 in 10.0 mi West 4.6 mph - N/A   Overcast
11:15 PM 26.6 °F 21.2 °F 23.0 °F 86% 29.71 in 10.0 mi West 4.6 mph - N/A   Overcast
11:35 PM 24.8 °F 19.1 °F 23.0 °F 93% 29.71 in 10.0 mi West 4.6 mph - N/A   Overcast
11:54 PM 24.8 °F 19.1 °F 23.0 °F 93% 29.71 in 10.0 mi West 4.6 mph - N/A   Overcast